Location: Saint-Étienne
(44.1856°N, 4.7057°E)
Time: 22:38:12
(UTC+00:00)

Daily predictions for brighter satellites

Satellite Brightness Start Highest point End
(mag) Time Altitude Azimuth Time Altitude Azimuth Time Altitude Azimuth
CENTAUR R/B 3.7 19:23:46 10° NNW 19:31:40 54° NE 19:40:26 10° ESE
Cosmos 1812 2.8 19:35:00 10° S 19:38:42 54° E 19:42:27 10° NNE
IGS 5A 3.5 19:37:26 10° SSE 19:41:35 88° ENE 19:45:46 10° NNW
Cosmos 1602 4.3 19:39:17 10° NNW 19:43:04 59° W 19:46:48 10° S
CZ-4B R/B 1.9 19:40:47 10° NNE 19:43:49 35° E 19:46:47 10° SSE
Cosmos 1725 Rocket 4.0 19:38:31 10° S 19:44:46 73° E 19:51:06 10° NNE
ISS -2.4 19:43:21 10° W 19:46:34 42° NNW 19:49:48 10° NE
Cosmos 1151 Rocket 3.9 19:43:23 10° SSE 19:47:09 30° E 19:50:55 10° NNE
USA 186 3.5 19:45:01 10° SSW 19:47:13 24° W 19:49:20 10° NW
PSLV R/B 4.0 19:43:49 10° NNE 19:47:48 54° E 19:51:45 10° S
CZ-4 R/B 4.3 19:51:59 10° WSW 19:54:03 14° W 19:56:08 10° WNW
Tsikada Rocket 4.1 19:50:08 10° N 19:56:29 71° E 20:02:43 10° SSE
BREEZE-M DEB (TANK) 3.5 19:54:44 10° WNW 19:58:14 49° SSW 20:02:23 11° SE
JB-3 4.4 19:54:31 10° NNE 19:58:40 86° ESE 20:02:49 10° SSW
Sich 1 3.0 19:54:43 10° N 19:59:08 74° E 20:03:28 10° SSE
Cosmos 1814 Rocket 4.4 19:54:16 10° N 19:59:15 48° ENE 20:03:49 12° SE
Cosmos 1400 Rocket 3.0 19:56:44 10° NNW 20:00:35 69° W 20:04:25 10° S
SPOT 1/Viking Rocket 3.7 19:58:17 10° SSE 20:03:22 60° ENE 20:08:29 10° N
COBE Rocket 4.4 19:58:25 10° S 20:03:32 66° W 20:08:35 10° NNW
Cosmos 1850 Rocket 4.4 19:58:59 10° SSW 20:04:17 72° WNW 20:09:40 10° NNE
ATLAS 5 CENTAUR R/B 4.0 20:00:19 10° WNW 20:05:11 28° WSW 20:10:43 10° S
Terra 3.7 20:03:59 10° E 20:06:53 16° ENE 20:09:47 10° NNE
USA 215 4.3 20:03:19 10° ENE 20:08:12 22° ESE 20:13:04 10° S
SL-4 R/B 3.9 20:05:22 10° WNW 20:09:30 31° N 20:13:25 10° ENE
Meteor 1-14 Rocket 4.3 20:03:38 10° N 20:09:38 77° E 20:15:28 10° SSE
X-37B 2.0 20:07:27 10° W 20:09:43 22° SSW 20:11:20 14° SSE
CARTOSAT-1 4.2 20:09:32 14° SE 20:12:55 40° ENE 20:16:57 10° N
Cosmos 1743 4.5 20:16:35 10° NNE 20:19:16 18° ENE 20:20:54 14° ESE
Cosmos 841 Rocket 3.8 20:14:22 10° NNW 20:19:27 63° WSW 20:24:32 10° S
Cosmos 2098 Rocket 4.1 20:17:20 10° NNW 20:20:44 34° W 20:23:38 10° SSW
Cosmos 2227 Rocket 3.1 20:16:17 10° N 20:21:30 36° NE 20:25:37 15° ESE
COSMOS 2487 3.2 20:21:53 10° NW 20:24:52 40° WSW 20:27:33 12° S
Cosmos 2208 Rocket 4.5 20:20:08 10° NNW 20:25:27 51° ENE 20:29:18 18° SE
NOSS 3-4 (A) 3.9 20:22:51 10° S 20:27:51 33° ESE 20:33:07 10° NE
NOSS 3-4 (C) 3.9 20:22:57 10° S 20:27:57 33° ESE 20:33:13 10° NE
BREEZE-M DEB (TANK) 4.3 20:24:25 10° SW 20:29:48 73° SE 20:47:34 10° ENE
Meteor 1-27 Rocket 4.4 20:26:16 15° SSE 20:30:24 38° E 20:35:44 10° NNE
Cosmos 1315 Rocket 2.8 20:29:34 10° N 20:33:42 76° E 20:36:28 20° SSE
H-2A R/B 3.6 20:30:05 10° N 20:33:50 35° WNW 20:37:34 10° SW
Cosmos 1980 Rocket 3.7 20:34:41 16° ESE 20:35:35 16° E 20:38:55 10° ENE
NOSS 3-2 (A) 4.3 20:29:24 10° NW 20:37:02 75° WSW 20:44:02 17° SSE
Meteor 1-11 Rocket 4.1 20:31:39 10° N 20:37:32 57° ENE 20:41:39 20° SSE
Cosmos 1328 Rocket 3.4 20:38:10 12° S 20:42:03 78° E 20:46:23 10° N
Genesis I 3.2 20:38:12 10° SW 20:42:12 87° NW 20:46:18 10° NE
Cosmos 1656 3.6 20:37:16 10° SSW 20:42:51 79° ESE 20:48:24 10° NNE
Cosmos 44 2.9 20:40:53 10° NW 20:45:14 86° WSW 20:47:38 26° SSE
Resurs 01 Rocket 2.7 20:41:55 10° S 20:46:04 41° W 20:50:15 10° NNW
CZ-2C R/B 4.3 20:42:33 10° NNE 20:47:01 39° E 20:49:16 24° SSE
Cosmos 1340 3.5 20:46:45 28° ESE 20:47:40 32° E 20:51:03 10° NNE
Cosmos 389 Rocket 3.6 20:45:01 10° NNE 20:48:03 27° ENE 20:48:53 25° E
Cosmos 1544 4.2 20:44:50 10° NNW 20:48:11 40° W 20:51:01 13° SSW
NOSS 3-2 (C) 4.1 20:43:35 10° NW 20:51:12 86° NE 20:57:18 22° SE
SPOT 3 Rocket 3.6 20:51:46 19° S 20:55:27 78° WSW 21:00:38 10° NNW
Cosmos 968 Rocket 3.5 20:50:48 10° SSW 20:55:59 86° WNW 21:01:10 10° NNE
ERS-1 Rocket 3.1 20:54:28 26° SE 20:57:11 59° ENE 21:02:08 10° N
Cosmos 1697 Rocket 2.9 20:53:01 17° S 20:57:11 49° ESE 21:02:38 10° NE
Cosmos 1933 Rocket 4.0 20:53:52 10° N 20:58:12 46° ENE 20:59:56 30° SE
Cosmos 2297 Rocket 2.2 20:54:05 10° NNW 20:59:46 84° WSW 21:03:06 26° SSE
EXPRESS MD2 4.0 20:54:45 10° WNW 21:00:09 51° NNE 21:02:01 22° E
Cosmos 1666 Rocket 4.4 20:56:04 10° NNW 21:00:17 47° W 21:03:38 15° SSW
Cosmos 405 2.8 20:57:04 10° N 21:00:29 88° E 21:01:37 40° S
Cosmos 1464 Rocket 4.0 20:59:05 19° S 21:03:40 69° E 21:09:49 10° NNE
Ariane Rocket 4.1 21:01:44 11° SSW 21:06:10 39° W 21:10:55 10° NNW
Helios 1A Rocket 2.9 21:04:52 30° S 21:06:46 76° WSW 21:10:47 10° NNW
SPOT 5 3.1 21:05:58 27° SSE 21:09:00 85° ENE 21:14:17 10° NNW
Aureole 1 Rocket 2.7 21:09:47 44° ESE 21:09:47 44° ESE 21:12:44 10° NE
USA 238 DEB 4.0 21:04:22 10° NW 21:11:42 76° WSW 21:16:20 27° SSE
USA 238 4.0 21:04:29 10° NW 21:11:49 77° WSW 21:16:26 27° SSE
Cosmos 2228 Rocket 4.2 21:12:15 28° ESE 21:12:56 29° E 21:16:52 10° NNE
Cosmos 1633 Rocket 4.2 21:10:52 10° NNW 21:14:59 40° W 21:17:54 17° SSW
Cosmos 1536 2.8 21:15:16 10° NNW 21:19:16 76° W 21:20:40 39° S
Cosmos 1470 Rocket 3.8 21:15:01 10° NNW 21:19:18 62° W 21:21:18 30° SSW
CENTAUR R/B 3.8 21:14:36 10° NW 21:22:37 50° WSW 21:28:29 21° S
ISS -1.3 21:21:14 10° WNW 21:23:56 22° N 21:26:39 10° NE
Gbstr 26 Del rocket 4.2 21:17:22 10° WNW 21:24:17 55° SW 21:26:50 33° SSE
SAR-Lupe-4 4.3 21:20:55 10° NNE 21:24:01 38° E 21:24:01 38° E
Cosmos 2219 3.1 21:21:59 10° NNW 21:27:39 84° WSW 21:30:03 36° SSE
SJ 16-02 2.4 21:28:50 29° E 21:28:50 29° E 21:32:19 10° NE
Okean 1 3.4 21:28:21 50° ESE 21:28:46 53° E 21:32:42 10° NNE
ARIANE 5 R/B 2.6 21:27:55 45° SSE 21:29:15 76° ENE 21:33:45 10° N
Cosmos 1184 Rocket 2.6 21:31:08 79° NNW 21:31:08 79° NNW 21:34:03 10° N
Nadezhda 4 Rocket 3.9 21:25:12 10° N 21:31:30 83° E 21:34:27 34° SSE
Cosmos 1515 Rocket 4.1 21:31:24 23° SSW 21:33:54 55° WNW 21:38:12 10° N
Cosmos 1486 Rocket 4.0 21:30:39 20° SSW 21:34:22 84° WNW 21:39:42 10° NNE
Meteor 1-19 Rocket 4.2 21:32:49 38° SSE 21:34:49 63° E 21:40:11 10° NNE
Cosmos 2082 3.8 21:33:52 10° NNW 21:39:29 65° ENE 21:41:30 39° SE
Spot 2 Rocket 4.2 21:37:57 27° SSW 21:40:22 47° W 21:45:15 10° NNW
Cosmos 1809 Rocket 4.4 21:34:16 10° N 21:40:26 87° W 21:43:11 35° S
Terra 2.0 21:42:29 39° SSW 21:44:07 65° WSW 21:48:52 10° NNW
SAR-Lupe-1 3.9 21:41:18 10° NNE 21:44:55 84° ESE 21:44:59 83° SE
Cosmos 1975 3.6 21:42:45 10° N 21:46:35 37° ENE 21:46:43 37° E
Cosmos 1378 4.0 21:47:28 37° ENE 21:47:28 37° ENE 21:50:20 10° NNE
Cosmos 1869 Rocket 3.5 21:42:23 10° N 21:46:53 73° E 21:47:39 58° SE
Cosmos 2344 3.4 21:41:13 10° SSW 21:48:48 83° SE 21:56:25 10° NE
SL-4 R/B 2.6 21:45:18 10° NW 21:49:42 57° NNE 21:50:57 40° E
USA 215 3.1 21:45:15 10° NE 21:51:51 80° SE 21:58:25 10° SW
Cosmos 773 Rocket 4.3 21:47:11 10° NNW 21:52:22 56° ENE 21:53:43 43° ESE
Cosmos 1743 4.0 21:51:38 10° NNW 21:55:01 31° W 21:55:54 28° WSW
Cosmos 2026 Rocket 4.0 21:51:32 10° N 21:57:37 66° E 21:59:36 43° SE
Cosmos 2263 Rocket 2.7 21:55:03 10° NNW 22:00:29 48° ENE 22:02:13 36° ESE
Meteor 2-4 Rocket 3.9 22:00:26 46° SE 22:01:49 58° E 22:07:27 10° NNE
Cosmos 2034 Rocket 4.3 21:58:07 25° SSW 22:01:50 63° W 22:08:09 10° N
Cosmos 1503 Rocket 4.0 22:00:02 37° SSW 22:02:12 81° WNW 22:07:32 10° NNE
Cosmos 1627 Rocket 4.4 21:57:49 10° N 22:04:01 76° E 22:06:00 46° SSE
Cosmos 2227 Rocket 3.1 22:00:22 10° NW 22:05:33 37° WSW 22:07:27 29° SW
Meteor 1-18 Rocket 4.2 22:07:39 48° S 22:09:23 83° E 22:15:05 10° NNE
Cosmos 2369 3.8 22:08:39 30° SW 22:11:34 75° WNW 22:17:15 10° NNE
Cosmos 1707 Rocket 3.6 22:12:52 65° E 22:12:54 65° E 22:17:19 10° NNE
ATLAS 2AS CENTAUR R/B 3.0 22:10:25 35° S 22:13:47 63° ESE 22:21:17 10° NE
Cosmos 921 Rocket 3.3 22:11:57 10° NNW 22:16:24 58° WSW 22:16:48 56° SW
NOSS 3-4 (A) 4.3 22:12:57 10° WSW 22:18:27 47° NW 22:24:27 10° NNE
NOSS 3-4 (C) 4.3 22:13:00 10° WSW 22:18:32 47° NW 22:24:33 10° NNE
Cosmos 1980 Rocket 2.3 22:16:22 35° SW 22:18:51 76° WNW 22:24:32 10° NNE
Cosmos 2322 Rocket 3.6 22:23:28 23° E 22:23:28 23° E 22:27:12 10° NE
USA 267 3.4 22:23:13 30° ESE 22:26:43 71° NE 22:33:14 10° NW
Meteor 2-15 Rocket 4.4 22:32:01 55° SSE 22:33:17 70° E 22:39:19 10° NNE
ALOS 2 3.5 22:33:40 38° ENE 22:33:49 38° ENE 22:37:53 10° N
ADEOS Rocket 4.0 22:33:38 26° E 22:35:20 32° ENE 22:40:19 10° N
Cosmos 2227 4.4 22:31:20 10° NNW 22:37:04 63° ENE 22:38:22 49° ESE
Cosmos 2279 Rocket 3.9 22:36:53 55° SSE 22:38:18 79° E 22:44:32 10° N
Cosmos 1697 Rocket 4.5 22:36:31 10° WSW 22:41:23 29° NW 22:46:16 10° N
RESURS DK-1 2.6 22:42:48 65° NNE 22:42:48 65° NNE 22:46:23 10° NNE
Cosmos 2297 Rocket 4.5 22:40:56 10° WNW 22:42:52 12° W 22:44:49 10° WSW
Cosmos 1844 Rocket 4.4 22:38:21 10° N 22:42:58 25° NE 22:45:40 18° E
ERS-2 3.6 22:44:08 10° NNE 22:46:16 30° NE 22:46:16 30° NE
Cosmos 1733 Rocket 3.1 22:44:11 10° NNW 22:48:28 72° WNW 22:48:28 72° WNW
Cosmos 2180 Rocket 4.4 22:48:21 58° SSE 22:49:29 73° E 22:55:37 10° NNE
Cosmos 158 Rocket 3.8 22:45:00 10° NNW 22:50:05 81° WSW 22:50:26 76° SSW
Iridium 2 4.4 22:48:13 10° N 22:51:10 51° NNW 22:51:10 51° NNW
Cosmos 1908 Rocket 4.3 22:48:58 10° N 22:52:50 42° ENE 22:52:50 42° ENE
Cosmos 1346 Rocket 3.4 22:53:37 53° NW 22:53:37 53° NW 22:57:16 10° N
Cosmos 44 Rocket 3.5 22:48:45 10° NNW 22:53:24 55° NE 22:53:49 53° ENE
Cosmos 1862 Rocket 3.6 22:54:35 73° WNW 22:54:35 73° WNW 22:58:57 10° N
SL-16 R/B 2.2 22:56:41 60° ESE 22:56:55 61° ESE 23:02:31 10° NNE
Cosmos 2219 Rocket 4.4 22:57:30 11° E 22:57:30 11° E 22:58:25 10° E
ATLAS 3B R/B 3.3 22:50:25 10° NNW 22:57:40 59° NE 23:01:38 29° ESE
ISS -1.9 22:58:20 10° NW 23:00:58 30° N 23:00:58 30° N
SJ 16-02 3.0 23:05:45 23° W 23:07:02 27° WNW 23:10:48 10° N
Cosmos 1898 Rocket 4.3 23:08:21 37° E 23:08:21 37° E 23:12:56 10° NE
Cosmos 1733 4.0 23:05:15 10° N 23:08:06 48° NNW 23:08:06 48° NNW
Cosmos 1655 Rocket 4.0 23:02:52 10° N 23:09:08 70° E 23:10:20 56° SE
Cosmos 1726 3.5 23:08:31 10° N 23:11:02 33° NE 23:11:02 33° NE
Okean 3 4.4 23:13:02 39° ENE 23:13:02 39° ENE 23:16:15 10° NNE
Cosmos 2278 4.5 23:10:56 30° WSW 23:13:16 46° WNW 23:18:44 10° NNE
Cosmos 990 Rocket 4.0 23:17:28 68° ESE 23:17:28 68° ESE 23:22:40 10° NNE
Spot 4 4.3 23:17:33 49° W 23:17:33 49° W 23:22:10 10° NNW
Meteor 1-4 Rocket 4.0 23:14:35 10° NNW 23:16:39 34° NNW 23:16:39 34° NNW
H-2A R/B 4.2 23:22:03 10° N 23:25:42 45° WNW 23:25:42 45° WNW
SL-4 R/B 4.3 23:25:14 10° WNW 23:26:23 16° W 23:26:23 16° W
Cosmos 1842 4.5 23:30:50 37° NE 23:30:50 37° NE 23:33:33 10° NNE
Cosmos 2360 Rocket 2.4 23:31:53 54° ESE 23:31:56 54° ESE 23:37:25 10° NE
Meteor 1-23 Rocket 4.2 23:33:53 68° SSE 23:34:31 76° E 23:40:22 10° NNE
USA 215 4.4 23:28:28 10° NE 23:34:33 42° NNW 23:40:37 10° W
PSLV R/B 4.2 23:30:33 10° NNE 23:34:07 48° ENE 23:34:07 48° ENE
Cosmos 2263 Rocket 3.5 23:39:33 10° NW 23:43:54 26° W 23:43:54 26° W
CZ-2D R/B 4.5 23:46:18 10° ENE 23:47:48 11° E 23:49:14 10° ESE
Cosmos 2333 Rocket 2.7 23:51:19 43° ESE 23:51:28 43° ESE 23:56:47 10° NE
